January 13, 2024
|
Michigan-Indoor Track Center (Banked) - Ann Arbor, MI
|
200m (Banked)

Women's 800 Meters

Top↑
PL NAME YEAR TEAM TIME TIME TIME TIME
1 Gina McNamara   Unattached 2:07.72 2:43.49 1:52.40 2:01.34
2 Penelopea Gordon SO-2 Michigan 2:08.02 2:45.15 2:10.58 2:18.27
3 Cassie Kearney SR-4 Michigan 2:08.40 2:28.95 1:54.28 2:40.50
4 Katelyn Stewart-Barnett JR-3 Michigan State 2:08.49 2:05.92 1:33.80 1:44.08
5 Sarah Forsyth FR-1 Michigan State 2:09.63 2:05.75 1:39.82 1:52.78
6 Lani Bloom FR-1 Michigan 2:10.12 1:55.81 2:01.02 2:15.33
7 Laura Nicholson JR-3 Toledo 2:12.06 1:48.29 1:43.01 2:50.36
8 Alsu Lenneman   VNTC 2:14.40 2:38.60 1:55.59 1:59.62
9 Krystal Clark JR-3 Toledo 2:14.49 2:17.18 2:11.80 2:11.80
10 Margrett Watt SO-2 Toledo 2:14.70 1:42.38 1:38.33 2:29.52
11 Mia Rogan Freshman Unattached 2:14.87 1:34.41 2:04.08 1:34.41
12 Olivia Millen SO-2 Michigan State 2:15.20 1:42.76 1:58.98 2:32.78
13 Taylor Ewert JR-3 Michigan State 2:15.83 2:26.70 1:45.95 1:40.52
14 Taylor Pangburn FR-1 Michigan State 2:16.39 1:40.93 1:53.21 1:39.57
15 Danielle Rinn SR-4 Western Michigan 2:17.41 1:47.18 2:42.15 1:45.81
16 Allison Cornell Freshman Unattached 2:17.44 2:40.81 1:58.20 2:50.43
17 Kayla Schiera SR-4 Western Michigan 2:17.54 2:54.68 1:43.16 1:58.29
18 Sarah Coyne FR-1 Michigan State 2:17.66 2:21.79 2:14.91 2:36.94
19 Reese Powers FR-1 Michigan State 2:18.57 1:48.09 2:18.57 2:10.26
20 Cadence Christie FR-1 Toledo 2:19.27 2:44.34 2:13.70 2:58.27
21 Clare McNamara SR-4 Michigan 2:19.47 2:40.39 1:55.76 2:44.58
22 Kathleen Venhuizen FR-1 Michigan 2:21.28 2:24.11 2:59.43 1:41.73
23 Natalie Kessler Freshman Unattached 2:24.29 2:27.18 2:04.09 2:41.61
24 Bekah Asselin FR-1 Western Michigan 2:25.74 3:09.47 2:33.03 2:54.89
25 Elena Wheeler JR-3 Eastern Michigan 2:25.75 3:00.73 2:17.01 1:58.06
26 Adit Dau FR-1 Michigan State 2:26.30 2:46.79 3:05.81 2:42.40
27 Kiera Hansen JR-3 Eastern Michigan 2:28.06 1:45.13 1:55.49 2:01.41
28 Anna Newkirk FR-1 Dayton 2:29.43 2:50.35 2:17.48 3:06.79
29 Samantha Wells SO-2 Dayton 2:30.51 2:39.54 2:50.08 2:47.07
30 Avery McLean Junior Unattached 2:36.63 3:09.53 2:41.33 3:20.49
  Aurora Rynda   Unattached DNF DNF DNF DNF
  Kayla Windemuller SR-4 Michigan DNF DNF DNF DNF
Women's 800 Meters Section 1
PL NAME YEAR TEAM TIME TIME TIME TIME TIME TIME TIME
1 Gina McNamara   Unattached 2:14.11 2:37.10 2:26.88 1:37.07 2:06.45 2:07.72 2:28.16
2 Penelopea Gordon SO-2 Michigan 1:51.38 1:38.58 1:55.22 2:24.67 2:13.14 2:08.02 2:27.23
3 Cassie Kearney SR-4 Michigan 1:54.28 2:34.08 2:03.27 2:08.40 2:40.50 2:08.40 2:44.36
4 Katelyn Stewart-Barnett JR-3 Michigan State 2:18.77 2:31.62 2:07.21 2:47.04 2:39.33 2:08.49 1:41.51
5 Sarah Forsyth FR-1 Michigan State 2:47.23 2:43.34 2:13.52 1:46.30 1:35.93 2:09.63 2:44.63
7 Laura Nicholson JR-3 Toledo 2:25.27 2:42.44 2:23.95 1:43.01 2:05.46 2:12.06 1:52.26
8 Alsu Lenneman   VNTC 2:02.31 2:46.66 2:45.32 1:54.24 2:27.84 2:14.40 2:52.04
18 Sarah Coyne FR-1 Michigan State 2:36.94 2:12.16 1:57.02 2:12.16 2:27.30 2:17.66 1:48.76
  Aurora Rynda   Unattached DNF DNF DNF DNF DNF DNF DNF
Women's 800 Meters Section 2
PL NAME YEAR TEAM TIME
6 Lani Bloom FR-1 Michigan 2:10.12
9 Krystal Clark JR-3 Toledo 2:14.49
11 Mia Rogan Freshman Unattached 2:14.87
12 Olivia Millen SO-2 Michigan State 2:15.20
13 Taylor Ewert JR-3 Michigan State 2:15.83
14 Taylor Pangburn FR-1 Michigan State 2:16.39
19 Reese Powers FR-1 Michigan State 2:18.57
21 Clare McNamara SR-4 Michigan 2:19.47
  Kayla Windemuller SR-4 Michigan DNF
Women's 800 Meters Section 3
PL NAME YEAR TEAM TIME TIME TIME
10 Margrett Watt SO-2 Toledo 2:14.70 2:18.74 2:49.73
15 Danielle Rinn SR-4 Western Michigan 2:17.41 2:22.91 2:20.16
16 Allison Cornell Freshman Unattached 2:17.44 1:47.21 2:28.44
17 Kayla Schiera SR-4 Western Michigan 2:17.54 2:49.18 1:52.79
20 Cadence Christie FR-1 Toledo 2:19.27 2:34.59 1:38.89
22 Kathleen Venhuizen FR-1 Michigan 2:21.28 2:05.74 2:58.02
23 Natalie Kessler Freshman Unattached 2:24.29 2:19.97 1:49.66
26 Adit Dau FR-1 Michigan State 2:26.30 2:48.25 2:54.10
30 Avery McLean Junior Unattached 2:36.63 2:10.01 2:28.80
Women's 800 Meters Section 4
PL NAME YEAR TEAM TIME TIME
24 Bekah Asselin FR-1 Western Michigan 2:38.86 2:25.74
25 Elena Wheeler JR-3 Eastern Michigan 1:46.40 2:25.75
27 Kiera Hansen JR-3 Eastern Michigan 2:02.89 2:28.06
28 Anna Newkirk FR-1 Dayton 3:00.81 2:29.43
29 Samantha Wells SO-2 Dayton 2:21.48 2:30.51